| time (UTC) | temp C | wind direction | speed KPH | gust KPH | rain 1hr cm | rain 24hr cm | rain mn cm | humidity % | barometer mb |
| 20260508044129 | 8 | 191 | 3.2 | 4.8 | 0.00 | 0.00 | 0.00 | 54 | |
| 20260508043626 | 8 | 100 | 0.0 | 3.2 | 0.00 | 0.00 | 0.00 | 54 | |
| 20260508043124 | 8 | 71 | 1.6 | 4.8 | 0.00 | 0.00 | 0.00 | 53 | |
| 20260508042620 | 9 | 310 | 3.2 | 4.8 | 0.00 | 0.00 | 0.00 | 50 | |
| 20260508042117 | 9 | 96 | 0.0 | 4.8 | 0.00 | 0.00 | 0.00 | 49 | |
| 20260508041613 | 9 | 98 | 0.0 | 1.6 | 0.00 | 0.00 | 0.00 | 49 | |
| 20260508041110 | 10 | 92 | 3.2 | 3.2 | 0.00 | 0.00 | 0.00 | 48 | |
| 20260508040607 | 10 | 64 | 0.0 | 3.2 | 0.00 | 0.00 | 0.00 | 48 | |
| 20260508040105 | 10 | 73 | 1.6 | 4.8 | 0.00 | 0.00 | 0.00 | 46 | |
| 20260508035601 | 10 | 107 | 0.0 | 3.2 | 0.00 | 0.00 | 0.00 | 46 | |
| 20260508035059 | 10 | 276 | 3.2 | 4.8 | 0.00 | 0.00 | 0.00 | 45 | |
| 20260508034555 | 10 | 352 | 4.8 | 6.4 | 0.00 | 0.00 | 0.00 | 46 | |
| 20260508034053 | 11 | 229 | 1.6 | 4.8 | 0.00 | 0.00 | 0.00 | 45 | |
| 20260508033550 | 11 | 97 | 1.6 | 9.7 | 0.00 | 0.00 | 0.00 | 44 | |
| 20260508033048 | 11 | 293 | 4.8 | 6.4 | 0.00 | 0.00 | 0.00 | 45 | |
| 20260508032544 | 11 | 274 | 4.8 | 9.7 | 0.00 | 0.00 | 0.00 | 46 | |
| 20260508032042 | 11 | 74 | 1.6 | 3.2 | 0.00 | 0.00 | 0.00 | 45 | |
| 20260508031539 | 11 | 149 | 3.2 | 4.8 | 0.00 | 0.00 | 0.00 | 42 | |
| 20260508031035 | 11 | 98 | 1.6 | 3.2 | 0.00 | 0.00 | 0.00 | 43 | |
| 20260508030531 | 11 | 93 | 0.0 | 1.6 | 0.00 | 0.00 | 0.00 | 42 | |
| 20260508030030 | 11 | 72 | 1.6 | 1.6 | 0.00 | 0.00 | 0.00 | 43 | |
| 20260508025525 | 11 | 86 | 1.6 | 3.2 | 0.00 | 0.00 | 0.00 | 42 | |
| 20260508025023 | 11 | 56 | 3.2 | 4.8 | 0.00 | 0.00 | 0.00 | 43 | |
| 20260508024518 | 11 | 28 | 0.0 | 4.8 | 0.00 | 0.00 | 0.00 | 43 | |
| 20260508024015 | 11 | 71 | 1.6 | 6.4 | 0.00 | 0.00 | 0.00 | 42 | |
| 20260508023512 | 11 | 113 | 1.6 | 6.4 | 0.00 | 0.00 | 0.00 | 41 | |
| 20260508023010 | 12 | 112 | 1.6 | 12.9 | 0.00 | 0.00 | 0.00 | 40 | |
| 20260508022505 | 12 | 82 | 6.4 | 11.3 | 0.00 | 0.00 | 0.00 | 39 | |
| 20260508022003 | 12 | 43 | 3.2 | 11.3 | 0.00 | 0.00 | 0.00 | 39 | |
| 20260508021458 | 12 | 100 | 0.0 | 3.2 | 0.00 | 0.00 | 0.00 | 39 | |
| 20260508020954 | 12 | 64 | 3.2 | 6.4 | 0.00 | 0.00 | 0.00 | 38 | |
| 20260508020452 | 12 | 62 | 3.2 | 6.4 | 0.00 | 0.00 | 0.00 | 37 | |
| 20260508015949 | 12 | 48 | 4.8 | 6.4 | 0.00 | 0.00 | 0.00 | 37 | |
| 20260508015447 | 12 | 84 | 1.6 | 4.8 | 0.00 | 0.00 | 0.00 | 38 | |
| 20260508014943 | 12 | 172 | 3.2 | 9.7 | 0.00 | 0.00 | 0.00 | 37 | |
| 20260508014440 | 12 | 5 | 4.8 | 11.3 | 0.00 | 0.00 | 0.00 | 37 | |
| 20260508013936 | 12 | 67 | 0.0 | 4.8 | 0.00 | 0.00 | 0.00 | 37 | |
| 20260508013432 | 12 | 73 | 1.6 | 1.6 | 0.00 | 0.00 | 0.00 | 37 | |
| 20260508012930 | 12 | 123 | 3.2 | 9.7 | 0.00 | 0.00 | 0.00 | 36 | |
| 20260508012426 | 12 | 118 | 3.2 | 4.8 | 0.00 | 0.00 | 0.00 | 37 | |
| 20260508011924 | 12 | 359 | 3.2 | 6.4 | 0.00 | 0.00 | 0.00 | 36 | |
| 20260508011422 | 13 | 62 | 1.6 | 6.4 | 0.00 | 0.00 | 0.00 | 36 | |
| 20260508010919 | 13 | 128 | 1.6 | 6.4 | 0.00 | 0.00 | 0.00 | 36 | |
| 20260508010416 | 13 | 94 | 1.6 | 4.8 | 0.00 | 0.00 | 0.00 | 36 | |
| 20260508005913 | 13 | 83 | 0.0 | 3.2 | 0.00 | 0.00 | 0.00 | 35 | |
| 20260508005410 | 13 | 116 | 3.2 | 6.4 | 0.00 | 0.00 | 0.00 | 35 | |
| 20260508004906 | 13 | 81 | 0.0 | 1.6 | 0.00 | 0.00 | 0.00 | 36 | |
| 20260508004402 | 13 | 321 | 1.6 | 4.8 | 0.00 | 0.00 | 0.00 | 35 | |
| 20260508003859 | 13 | 105 | 3.2 | 4.8 | 0.00 | 0.00 | 0.00 | 35 | |
| 20260508003356 | 14 | 47 | 3.2 | 4.8 | 0.00 | 0.00 | 0.00 | 35 | |
| 20260508002853 | 13 | 79 | 1.6 | 3.2 | 0.00 | 0.00 | 0.00 | 36 | |
| 20260508002350 | 14 | 103 | 1.6 | 4.8 | 0.00 | 0.00 | 0.00 | 36 | |
| 20260508001846 | 15 | 48 | 3.2 | 4.8 | 0.00 | 0.00 | 0.00 | 34 | |
| 20260508001342 | 15 | 340 | 1.6 | 9.7 | 0.00 | 0.00 | 0.00 | 31 | |
| 20260508000838 | 15 | 350 | 4.8 | 6.4 | 0.00 | 0.00 | 0.00 | 30 | |
| 20260508000335 | 15 | 348 | 8.0 | 14.5 | 0.00 | 0.00 | 0.00 | 29 | |
| 20260507235831 | 15 | 77 | 6.4 | 12.9 | 0.00 | 0.00 | 0.00 | 29 | |
| 20260507235329 | 15 | 98 | 6.4 | 14.5 | 0.00 | 0.00 | 0.00 | 30 | |
| 20260507234826 | 15 | 318 | 6.4 | 11.3 | 0.00 | 0.00 | 0.00 | 30 | |
| 20260507234323 | 15 | 320 | 8.0 | 17.7 | 0.00 | 0.00 | 0.00 | 29 | |
| 20260507233819 | 15 | 329 | 8.0 | 12.9 | 0.00 | 0.00 | 0.00 | 29 | |
| 20260507233317 | 15 | 340 | 14.5 | 16.1 | 0.00 | 0.00 | 0.00 | 29 | |
| 20260507232815 | 15 | 270 | 8.0 | 17.7 | 0.00 | 0.00 | 0.00 | 30 | |
| 20260507232311 | 14 | 316 | 6.4 | 16.1 | 0.00 | 0.00 | 0.00 | 31 | |
| 20260507231808 | 15 | 350 | 8.0 | 11.3 | 0.00 | 0.00 | 0.00 | 31 | |
| 20260507231305 | 14 | 300 | 14.5 | 24.1 | 0.00 | 0.00 | 0.00 | 31 | |
| 20260507230801 | 15 | 273 | 11.3 | 20.9 | 0.00 | 0.00 | 0.00 | 30 | |
| 20260507230259 | 14 | 312 | 9.7 | 12.9 | 0.00 | 0.00 | 0.00 | 32 | |
| 20260507225758 | 14 | 40 | 9.7 | 14.5 | 0.00 | 0.00 | 0.00 | 31 | |
| 20260507225254 | 14 | 297 | 11.3 | 17.7 | 0.00 | 0.00 | 0.00 | 32 | |
| 20260507224750 | 15 | 10 | 6.4 | 11.3 | 0.00 | 0.00 | 0.00 | 31 | |
| 20260507224247 | 16 | 259 | 4.8 | 9.7 | 0.00 | 0.00 | 0.00 | 29 | |
| 20260507223743 | 16 | 330 | 8.0 | 17.7 | 0.00 | 0.00 | 0.00 | 28 | |
| 20260507223240 | 16 | 341 | 14.5 | 20.9 | 0.00 | 0.00 | 0.00 | 29 | |
| 20260507222737 | 16 | 27 | 6.4 | 12.9 | 0.00 | 0.00 | 0.00 | 29 | |
| 20260507222233 | 15 | 293 | 6.4 | 11.3 | 0.00 | 0.00 | 0.00 | 29 | |
| 20260507221730 | 16 | 274 | 8.0 | 14.5 | 0.00 | 0.00 | 0.00 | 30 | |
| 20260507221226 | 15 | 295 | 11.3 | 20.9 | 0.00 | 0.00 | 0.00 | 29 | |
| 20260507220723 | 15 | 19 | 11.3 | 14.5 | 0.00 | 0.00 | 0.00 | 32 | |
| 20260507220221 | 15 | 83 | 14.5 | 20.9 | 0.00 | 0.00 | 0.00 | 32 | |
| 20260507215717 | 15 | 270 | 4.8 | 14.5 | 0.00 | 0.00 | 0.00 | 31 | |
| 20260507215214 | 16 | 93 | 3.2 | 12.9 | 0.00 | 0.00 | 0.00 | 30 | |
| 20260507214712 | 15 | 359 | 9.7 | 20.9 | 0.00 | 0.00 | 0.00 | 29 | |
| 20260507214209 | 16 | 2 | 11.3 | 14.5 | 0.00 | 0.00 | 0.00 | 28 | |
| 20260507213704 | 19 | 226 | 4.8 | 6.4 | 0.00 | 0.00 | 0.00 | 27 | |
| 20260507213201 | 19 | 148 | 1.6 | 4.8 | 0.00 | 0.00 | 0.00 | 32 | |
| 20260507212657 | 17 | 100 | 0.0 | 3.2 | 0.00 | 0.00 | 0.00 | 34 | |
| 20260507212154 | 18 | 90 | 3.2 | 6.4 | 0.00 | 0.00 | 0.00 | 33 | |
| 20260507211651 | 17 | 217 | 4.8 | 6.4 | 0.00 | 0.00 | 0.00 | 32 | |
| 20260507211146 | 17 | 19 | 1.6 | 4.8 | 0.00 | 0.00 | 0.00 | 34 | |
| 20260507210644 | 18 | 110 | 1.6 | 3.2 | 0.00 | 0.00 | 0.00 | 34 | |
| 20260507210141 | 18 | 192 | 1.6 | 4.8 | 0.00 | 0.00 | 0.00 | 33 | |
| 20260507205637 | 18 | 134 | 0.0 | 6.4 | 0.00 | 0.00 | 0.00 | 33 | |
| 20260507205134 | 17 | 130 | 3.2 | 6.4 | 0.00 | 0.00 | 0.00 | 34 | |
| 20260507204630 | 16 | 244 | 1.6 | 9.7 | 0.00 | 0.00 | 0.00 | 35 | |
| 20260507204128 | 17 | 74 | 1.6 | 3.2 | 0.00 | 0.00 | 0.00 | 33 | |
| 20260507203626 | 16 | 106 | 1.6 | 3.2 | 0.00 | 0.00 | 0.00 | 33 | |
| 20260507203123 | 15 | 29 | 3.2 | 3.2 | 0.00 | 0.00 | 0.00 | 34 | |
| 20260507202619 | 15 | 1 | 1.6 | 4.8 | 0.00 | 0.00 | 0.00 | 34 | |
| 20260507202115 | 14 | 188 | 1.6 | 1.6 | 0.00 | 0.00 | 0.00 | 38 | |
| 20260507201610 | 13 | 303 | 6.4 | 9.7 | 0.00 | 0.00 | 0.00 | 36 | |
| 20260507201108 | 13 | 104 | 0.0 | 6.4 | 0.00 | 0.00 | 0.00 | 36 | |
| 20260507200602 | 16 | 119 | 3.2 | 4.8 | 0.00 | 0.00 | 0.00 | 33 | |
| 20260507200059 | 16 | 140 | 1.6 | 3.2 | 0.00 | 0.00 | 0.00 | 35 | |
| 20260507195557 | 15 | 126 | 1.6 | 4.8 | 0.00 | 0.00 | 0.00 | 35 | |
| 20260507195054 | 15 | 78 | 1.6 | 3.2 | 0.00 | 0.00 | 0.00 | 35 | |
| 20260507194550 | 15 | 308 | 3.2 | 4.8 | 0.00 | 0.00 | 0.00 | 36 | |
| 20260507194046 | 15 | 98 | 1.6 | 1.6 | 0.00 | 0.00 | 0.00 | 35 | |
| 20260507193543 | 16 | 123 | 3.2 | 4.8 | 0.00 | 0.00 | 0.00 | 34 | |
| 20260507193040 | 17 | 118 | 1.6 | 4.8 | 0.00 | 0.00 | 0.00 | 34 | |
| 20260507192536 | 16 | 183 | 4.8 | 6.4 | 0.00 | 0.00 | 0.00 | 34 | |
| 20260507192033 | 16 | 184 | 4.8 | 4.8 | 0.00 | 0.00 | 0.00 | 34 | |
| 20260507191528 | 15 | 69 | 1.6 | 3.2 | 0.00 | 0.00 | 0.00 | 34 | |
| 20260507191026 | 15 | 104 | 1.6 | 4.8 | 0.00 | 0.00 | 0.00 | 35 | |
| 20260507190523 | 14 | 105 | 1.6 | 3.2 | 0.00 | 0.00 | 0.00 | 37 | |
| 20260507190022 | 14 | 139 | 4.8 | 4.8 | 0.00 | 0.00 | 0.00 | 38 | |
| 20260507185520 | 14 | 113 | 1.6 | 4.8 | 0.00 | 0.00 | 0.00 | 38 | |
| 20260507185016 | 14 | 97 | 1.6 | 11.3 | 0.00 | 0.00 | 0.00 | 38 | |
| 20260507184514 | 15 | 125 | 4.8 | 6.4 | 0.00 | 0.00 | 0.00 | 35 | |
| 20260507184012 | 15 | 115 | 6.4 | 11.3 | 0.00 | 0.00 | 0.00 | 38 | |
| 20260507183507 | 13 | 302 | 3.2 | 4.8 | 0.00 | 0.00 | 0.00 | 41 | |
| 20260507183005 | 15 | 176 | 4.8 | 9.7 | 0.00 | 0.00 | 0.00 | 40 | |
| 20260507182501 | 14 | 95 | 3.2 | 6.4 | 0.00 | 0.00 | 0.00 | 37 | |
| 20260507181957 | 15 | 129 | 1.6 | 4.8 | 0.00 | 0.00 | 0.00 | 38 | |
| 20260507181454 | 14 | 115 | 3.2 | 11.3 | 0.00 | 0.00 | 0.00 | 39 | |
| 20260507180950 | 13 | 127 | 0.0 | 6.4 | 0.00 | 0.00 | 0.00 | 39 | |
| 20260507180447 | 13 | 86 | 6.4 | 11.3 | 0.00 | 0.00 | 0.00 | 37 | |
| 20260507175943 | 13 | 117 | 4.8 | 9.7 | 0.00 | 0.00 | 0.00 | 37 | |
| 20260507175440 | 13 | 56 | 3.2 | 3.2 | 0.00 | 0.00 | 0.00 | 38 | |
| 20260507174937 | 13 | 130 | 3.2 | 11.3 | 0.00 | 0.00 | 0.00 | 37 | |
| 20260507174434 | 13 | 98 | 1.6 | 4.8 | 0.00 | 0.00 | 0.00 | 40 | |
| 20260507173932 | 13 | 98 | 1.6 | 6.4 | 0.00 | 0.00 | 0.00 | 36 | |
| 20260507173429 | 13 | 129 | 1.6 | 6.4 | 0.00 | 0.00 | 0.00 | 40 | |
| 20260507172926 | 13 | 126 | 3.2 | 9.7 | 0.00 | 0.00 | 0.00 | 37 | |
| 20260507172422 | 13 | 112 | 3.2 | 4.8 | 0.00 | 0.00 | 0.00 | 36 | |
| 20260507171918 | 12 | 190 | 1.6 | 9.7 | 0.00 | 0.00 | 0.00 | 40 | |
| 20260507171415 | 13 | 90 | 0.0 | 4.8 | 0.00 | 0.00 | 0.00 | 38 | |
| 20260507170912 | 12 | 148 | 0.0 | 3.2 | 0.00 | 0.00 | 0.00 | 39 | |
| 20260507170409 | 12 | 135 | 0.0 | 6.4 | 0.00 | 0.00 | 0.00 | 40 | |
| 20260507165905 | 12 | 127 | 4.8 | 6.4 | 0.00 | 0.00 | 0.00 | 38 | |
| 20260507165400 | 12 | 115 | 1.6 | 1.6 | 0.00 | 0.00 | 0.00 | 38 | |
| 20260507164857 | 11 | 88 | 3.2 | 6.4 | 0.00 | 0.00 | 0.00 | 42 | |
| 20260507164354 | 11 | 106 | 1.6 | 4.8 | 0.00 | 0.00 | 0.00 | 42 | |
| 20260507163851 | 11 | 174 | 1.6 | 4.8 | 0.00 | 0.00 | 0.00 | 42 | |
| 20260507163348 | 11 | 135 | 1.6 | 4.8 | 0.00 | 0.00 | 0.00 | 40 | |
| 20260507162845 | 10 | 107 | 0.0 | 3.2 | 0.00 | 0.00 | 0.00 | 41 | |
| 20260507162340 | 9 | 137 | 3.2 | 4.8 | 0.00 | 0.00 | 0.00 | 42 | |
| 20260507161838 | 9 | 144 | 1.6 | 3.2 | 0.00 | 0.00 | 0.00 | 44 | |
| 20260507161334 | 8 | 103 | 1.6 | 4.8 | 0.00 | 0.00 | 0.00 | 42 | |
| 20260507160831 | 8 | 166 | 1.6 | 3.2 | 0.00 | 0.00 | 0.00 | 44 | |
| 20260507160326 | 9 | 170 | 0.0 | 3.2 | 0.00 | 0.00 | 0.00 | 42 | |
| 20260507155823 | 9 | 139 | 3.2 | 4.8 | 0.00 | 0.00 | 0.00 | 43 | |
| 20260507155319 | 9 | 104 | 1.6 | 6.4 | 0.00 | 0.00 | 0.00 | 42 | |
| 20260507154816 | 8 | 95 | 1.6 | 1.6 | 0.00 | 0.00 | 0.00 | 44 | |
| 20260507154313 | 7 | 144 | 0.0 | 3.2 | 0.00 | 0.00 | 0.00 | 47 | |
| 20260507153810 | 7 | 117 | 0.0 | 1.6 | 0.00 | 0.00 | 0.00 | 47 | |
| 20260507153306 | 7 | 120 | 3.2 | 3.2 | 0.00 | 0.00 | 0.00 | 42 | |
| 20260507152803 | 7 | 118 | 1.6 | 3.2 | 0.00 | 0.00 | 0.00 | 47 | |
| 20260507152259 | 6 | 141 | 0.0 | 1.6 | 0.00 | 0.00 | 0.00 | 46 | |
| 20260507151755 | 6 | 105 | 0.0 | 0.0 | 0.00 | 0.00 | 0.00 | 47 | |
| 20260507151251 | 6 | 110 | 0.0 | 0.0 | 0.00 | 0.00 | 0.00 | 44 | |
| 20260507150748 | 6 | 105 | 0.0 | 1.6 | 0.00 | 0.00 | 0.00 | 43 | |
| 20260507150245 | 6 | 100 | 0.0 | 3.2 | 0.00 | 0.00 | 0.00 | 46 | |
| 20260507145741 | 6 | 97 | 0.0 | 3.2 | 0.00 | 0.00 | 0.00 | 46 | |
| 20260507145238 | 5 | 111 | 0.0 | 3.2 | 0.00 | 0.00 | 0.00 | 50 | |
| 20260507144735 | 4 | 112 | 0.0 | 0.0 | 0.00 | 0.00 | 0.00 | 53 | |
| 20260507144233 | 3 | 97 | 0.0 | 1.6 | 0.00 | 0.00 | 0.00 | 54 | |
| 20260507143729 | 3 | 92 | 0.0 | 1.6 | 0.00 | 0.00 | 0.00 | 54 | |
| 20260507143226 | 3 | 101 | 0.0 | 0.0 | 0.00 | 0.00 | 0.00 | 57 | |
| 20260507142722 | 3 | 105 | 0.0 | 1.6 | 0.00 | 0.00 | 0.00 | 54 | |
| 20260507142219 | 3 | 92 | 0.0 | 0.0 | 0.00 | 0.00 | 0.00 | 55 | |
| 20260507141715 | 2 | 98 | 0.0 | 1.6 | 0.00 | 0.00 | 0.00 | 56 | |
| 20260507141213 | 2 | 103 | 0.0 | 1.6 | 0.00 | 0.00 | 0.00 | 56 | |
| 20260507140708 | 2 | 139 | 3.2 | 3.2 | 0.00 | 0.00 | 0.00 | 57 | |
| 20260507140206 | 1 | 132 | 1.6 | 3.2 | 0.00 | 0.00 | 0.00 | 60 | |
| 20260507135703 | 1 | 122 | 3.2 | 3.2 | 0.00 | 0.00 | 0.00 | 61 | |
| 20260507135200 | 1 | 114 | 1.6 | 3.2 | 0.00 | 0.00 | 0.00 | 59 | |
| 20260507134657 | 1 | 142 | 1.6 | 1.6 | 0.00 | 0.00 | 0.00 | 58 | |
| 20260507134152 | 1 | 108 | 0.0 | 0.0 | 0.00 | 0.00 | 0.00 | 59 | |
| 20260507133648 | 0 | 105 | 0.0 | 0.0 | 0.00 | 0.00 | 0.00 | 65 | |
| 20260507133146 | 0 | 99 | 0.0 | 0.0 | 0.00 | 0.00 | 0.00 | 67 | |
| 20260507132643 | -1 | 94 | 0.0 | 0.0 | 0.00 | 0.00 | 0.00 | 72 | |
| 20260507132139 | -2 | 97 | 0.0 | 0.0 | 0.00 | 0.00 | 0.00 | 77 | |
| 20260507131636 | -4 | 103 | 0.0 | 0.0 | 0.00 | 0.00 | 0.00 | 83 | |
| 20260507131134 | -5 | 109 | 0.0 | 0.0 | 0.00 | 0.00 | 0.00 | 84 | |
| 20260507130630 | -5 | 109 | 0.0 | 0.0 | 0.00 | 0.00 | 0.00 | 83 | |
| 20260507130128 | -5 | 109 | 0.0 | 0.0 | 0.00 | 0.00 | 0.00 | 82 | |
| 20260507125627 | -4 | 108 | 0.0 | 0.0 | 0.00 | 0.00 | 0.00 | 82 | |
| 20260507125124 | -4 | 107 | 0.0 | 0.0 | 0.00 | 0.00 | 0.00 | 81 | |
| 20260507124620 | -4 | 108 | 0.0 | 0.0 | 0.00 | 0.00 | 0.00 | 81 | |
| 20260507124118 | -4 | 111 | 0.0 | 0.0 | 0.00 | 0.00 | 0.00 | 82 | |
| 20260507123616 | -5 | 100 | 0.0 | 0.0 | 0.00 | 0.00 | 0.00 | 82 | |
| 20260507123113 | -5 | 103 | 0.0 | 0.0 | 0.00 | 0.00 | 0.00 | 82 | |
| 20260507122608 | -5 | 101 | 0.0 | 0.0 | 0.00 | 0.00 | 0.00 | 82 | |
| 20260507122104 | -5 | 97 | 0.0 | 0.0 | 0.00 | 0.00 | 0.00 | 82 | |
| 20260507121600 | -5 | 97 | 0.0 | 0.0 | 0.00 | 0.00 | 0.00 | 81 | |
| 20260507121056 | -5 | 128 | 0.0 | 0.0 | 0.00 | 0.00 | 0.00 | 83 | |
| 20260507120552 | -5 | 105 | 0.0 | 0.0 | 0.00 | 0.00 | 0.00 | 83 | |
| 20260507120049 | -5 | 100 | 0.0 | 0.0 | 0.00 | 0.00 | 0.00 | 83 | |
| 20260507115545 | -5 | 102 | 0.0 | 0.0 | 0.00 | 0.00 | 0.00 | 85 | |
| 20260507115041 | -5 | 98 | 0.0 | 0.0 | 0.00 | 0.00 | 0.00 | 87 | |
| 20260507114537 | -6 | 108 | 0.0 | 0.0 | 0.00 | 0.00 | 0.00 | 86 | |
| 20260507114035 | -6 | 107 | 0.0 | 0.0 | 0.00 | 0.00 | 0.00 | 85 | |
| 20260507113532 | -5 | 107 | 0.0 | 0.0 | 0.00 | 0.00 | 0.00 | 85 | |
| 20260507113029 | -5 | 103 | 0.0 | 0.0 | 0.00 | 0.00 | 0.00 | 84 | |
| 20260507112527 | -5 | 107 | 0.0 | 0.0 | 0.00 | 0.00 | 0.00 | 81 | |
| 20260507112023 | -5 | 104 | 0.0 | 0.0 | 0.00 | 0.00 | 0.00 | 81 | |
| 20260507111520 | -5 | 110 | 0.0 | 0.0 | 0.00 | 0.00 | 0.00 | 81 | |
| 20260507111017 | -4 | 104 | 0.0 | 0.0 | 0.00 | 0.00 | 0.00 | 80 | |
| 20260507110513 | -4 | 106 | 0.0 | 0.0 | 0.00 | 0.00 | 0.00 | 80 | |
| 20260507110010 | -4 | 99 | 0.0 | 1.6 | 0.00 | 0.00 | 0.00 | 80 | |
| 20260507105507 | -4 | 107 | 0.0 | 0.0 | 0.00 | 0.00 | 0.00 | 80 | |
| 20260507105003 | -4 | 111 | 0.0 | 0.0 | 0.00 | 0.00 | 0.00 | 79 | |
| 20260507104500 | -4 | 107 | 0.0 | 0.0 | 0.00 | 0.00 | 0.00 | 78 | |
| 20260507103956 | -3 | 104 | 0.0 | 0.0 | 0.00 | 0.00 | 0.00 | 76 | |
| 20260507103453 | -3 | 134 | 0.0 | 1.6 | 0.00 | 0.00 | 0.00 | 75 | |
| 20260507102949 | -3 | 113 | 0.0 | 1.6 | 0.00 | 0.00 | 0.00 | 73 | |
| 20260507102446 | -2 | 146 | 0.0 | 1.6 | 0.00 | 0.00 | 0.00 | 72 | |
| 20260507101942 | -1 | 107 | 0.0 | 1.6 | 0.00 | 0.00 | 0.00 | 64 | |
| 20260507101437 | -1 | 88 | 0.0 | 0.0 | 0.00 | 0.00 | 0.00 | 61 | |
| 20260507100934 | -1 | 102 | 1.6 | 3.2 | 0.00 | 0.00 | 0.00 | 60 | |
| 20260507100432 | -1 | 97 | 0.0 | 1.6 | 0.00 | 0.00 | 0.00 | 62 | |
| 20260507095930 | 0 | 108 | 0.0 | 3.2 | 0.00 | 0.00 | 0.00 | 60 | |
| 20260507095427 | 0 | 266 | 6.4 | 6.4 | 0.00 | 0.00 | 0.00 | 58 | |
| 20260507094924 | 0 | 222 | 6.4 | 6.4 | 0.00 | 0.00 | 0.00 | 58 | |
| 20260507094420 | 0 | 63 | 4.8 | 11.3 | 0.00 | 0.00 | 0.00 | 58 | |
| 20260507093917 | -1 | 260 | 4.8 | 14.5 | 0.00 | 0.00 | 0.00 | 60 | |
| 20260507093415 | -1 | 358 | 3.2 | 6.4 | 0.00 | 0.00 | 0.00 | 66 | |
| 20260507092913 | -1 | 96 | 0.0 | 3.2 | 0.00 | 0.00 | 0.00 | 64 | |
| 20260507092409 | -1 | 218 | 1.6 | 4.8 | 0.00 | 0.00 | 0.00 | 65 | |
| 20260507091906 | -1 | 96 | 1.6 | 1.6 | 0.00 | 0.00 | 0.00 | 63 | |
| 20260507091402 | -1 | 93 | 3.2 | 4.8 | 0.00 | 0.00 | 0.00 | 62 | |
| 20260507090858 | 0 | 106 | 1.6 | 4.8 | 0.00 | 0.00 | 0.00 | 60 | |
| 20260507090354 | 0 | 268 | 3.2 | 6.4 | 0.00 | 0.00 | 0.00 | 58 | |
| 20260507085852 | -1 | 50 | 1.6 | 1.6 | 0.00 | 0.00 | 0.00 | 59 | |
| 20260507085348 | 0 | 101 | 0.0 | 1.6 | 0.00 | 0.00 | 0.00 | 63 | |
| 20260507084845 | 0 | 95 | 1.6 | 3.2 | 0.00 | 0.00 | 0.00 | 60 | |
| 20260507084342 | 0 | 54 | 1.6 | 6.4 | 0.00 | 0.00 | 0.00 | 58 | |
| 20260507083839 | 0 | 249 | 4.8 | 6.4 | 0.00 | 0.00 | 0.00 | 58 | |
| 20260507083336 | 0 | 241 | 6.4 | 6.4 | 0.00 | 0.00 | 0.00 | 58 | |
| 20260507082832 | 0 | 338 | 9.7 | 14.5 | 0.00 | 0.00 | 0.00 | 57 | |
| 20260507082327 | 0 | 236 | 6.4 | 14.5 | 0.00 | 0.00 | 0.00 | 56 | |
| 20260507081825 | 0 | 351 | 8.0 | 12.9 | 0.00 | 0.00 | 0.00 | 56 | |
| 20260507081321 | 0 | 26 | 9.7 | 20.9 | 0.00 | 0.00 | 0.00 | 54 | |
| 20260507080817 | 1 | 47 | 12.9 | 16.1 | 0.00 | 0.00 | 0.00 | 53 | |
| 20260507080314 | 0 | 25 | 9.7 | 16.1 | 0.00 | 0.00 | 0.00 | 53 | |
| 20260507075809 | 0 | 282 | 9.7 | 16.1 | 0.00 | 0.00 | 0.00 | 55 | |
| 20260507075307 | 0 | 285 | 9.7 | 12.9 | 0.00 | 0.00 | 0.00 | 56 | |
| 20260507074802 | 0 | 321 | 6.4 | 11.3 | 0.00 | 0.00 | 0.00 | 56 | |
| 20260507074300 | 0 | 10 | 6.4 | 11.3 | 0.00 | 0.00 | 0.00 | 55 | |
| 20260507073757 | 0 | 65 | 3.2 | 6.4 | 0.00 | 0.00 | 0.00 | 58 | |
| 20260507073253 | 0 | 273 | 6.4 | 9.7 | 0.00 | 0.00 | 0.00 | 59 | |
| 20260507072751 | 0 | 108 | 0.0 | 4.8 | 0.00 | 0.00 | 0.00 | 61 | |
| 20260507072248 | 0 | 64 | 1.6 | 9.7 | 0.00 | 0.00 | 0.00 | 60 | |
| 20260507071746 | 0 | 90 | 3.2 | 6.4 | 0.00 | 0.00 | 0.00 | 59 | |
| 20260507071242 | 0 | 39 | 3.2 | 12.9 | 0.00 | 0.00 | 0.00 | 60 | |
| 20260507070739 | 0 | 22 | 3.2 | 9.7 | 0.00 | 0.00 | 0.00 | 58 | |
| 20260507070236 | 0 | 299 | 3.2 | 12.9 | 0.00 | 0.00 | 0.00 | 60 | |
| 20260507065732 | 0 | 59 | 3.2 | 6.4 | 0.00 | 0.00 | 0.00 | 61 | |
| 20260507065229 | 0 | 98 | 0.0 | 3.2 | 0.00 | 0.00 | 0.00 | 62 | |
| 20260507064727 | 0 | 93 | 1.6 | 3.2 | 0.00 | 0.00 | 0.00 | 62 | |
| 20260507064226 | 0 | 96 | 0.0 | 0.0 | 0.00 | 0.00 | 0.00 | 62 | |
| 20260507063722 | 0 | 81 | 1.6 | 3.2 | 0.00 | 0.00 | 0.00 | 61 | |
| 20260507063219 | 0 | 104 | 1.6 | 1.6 | 0.00 | 0.00 | 0.00 | 62 | |
| 20260507062716 | 0 | 96 | 0.0 | 0.0 | 0.00 | 0.00 | 0.00 | 62 | |
| 20260507062214 | 0 | 253 | 3.2 | 4.8 | 0.00 | 0.00 | 0.00 | 59 | |
| 20260507061711 | 0 | 72 | 1.6 | 1.6 | 0.00 | 0.00 | 0.00 | 61 | |
| 20260507061209 | 1 | 184 | 3.2 | 4.8 | 0.00 | 0.00 | 0.00 | 58 | |
| 20260507060707 | 1 | 30 | 3.2 | 6.4 | 0.00 | 0.00 | 0.00 | 59 | |
| 20260507060203 | 1 | 77 | 1.6 | 3.2 | 0.00 | 0.00 | 0.00 | 58 | |
| 20260507055659 | 1 | 35 | 3.2 | 11.3 | 0.00 | 0.58 | 0.58 | 56 | |
| 20260507055155 | 1 | 128 | 6.4 | 12.9 | 0.00 | 0.58 | 0.58 | 56 | |
| 20260507054651 | 1 | 250 | 4.8 | 11.3 | 0.00 | 0.58 | 0.58 | 57 | |
| 20260507054148 | 1 | 74 | 3.2 | 4.8 | 0.00 | 0.58 | 0.58 | 58 | |
| 20260507053646 | 1 | 330 | 6.4 | 9.7 | 0.00 | 0.58 | 0.58 | 58 | |
| 20260507053144 | 1 | 77 | 3.2 | 11.3 | 0.00 | 0.58 | 0.58 | 59 | |
| 20260507052642 | 0 | 96 | 3.2 | 4.8 | 0.00 | 0.58 | 0.58 | 64 | |
| 20260507052138 | 0 | 62 | 1.6 | 1.6 | 0.00 | 0.58 | 0.58 | 71 | |
| 20260507051636 | 0 | 90 | 1.6 | 6.4 | 0.00 | 0.58 | 0.58 | 71 | |
| 20260507051127 | 0 | 103 | 1.6 | 4.8 | 0.00 | 0.58 | 0.58 | 76 | |
| 20260507050624 | -2 | 106 | 1.6 | 1.6 | 0.00 | 0.58 | 0.58 | 90 | |
| 20260507050121 | -1 | 104 | 0.0 | 0.0 | 0.00 | 0.58 | 0.58 | 90 | |
| 20260507045618 | -1 | 110 | 0.0 | 1.6 | 0.00 | 0.58 | 0.58 | 90 | |
| 20260507045114 | -1 | 106 | 0.0 | 1.6 | 0.00 | 0.58 | 0.58 | 91 | |
| 20260507044610 | -1 | 120 | 0.0 | 0.0 | 0.00 | 0.58 | 0.58 | 92 |